TimeMDT,TemperatureF,Dew PointF,Humidity,Sea Level PressureIn,VisibilityMPH,Wind Direction,Wind SpeedMPH,Gust SpeedMPH,PrecipitationIn,Events,Conditions,WindDirDegrees,DateUTC
12:53 AM,71.1,55.0,57,29.97,10.0,SE,5.8,-,0.00,Rain,Light Rain,130,2013-09-07 06:53:00
1:53 AM,70.0,59.0,68,29.96,10.0,Calm,Calm,-,0.02,,Overcast,0,2013-09-07 07:53:00
2:53 AM,68.0,61.0,78,29.95,10.0,Calm,Calm,-,N/A,,Partly Cloudy,0,2013-09-07 08:53:00
3:53 AM,66.9,55.9,68,29.94,10.0,SSE,4.6,-,N/A,,Clear,160,2013-09-07 09:53:00
4:53 AM,66.9,54.0,63,29.92,10.0,South,8.1,-,N/A,,Clear,170,2013-09-07 10:53:00
5:53 AM,69.1,52.0,54,29.94,10.0,WSW,4.6,-,0.00,,Partly Cloudy,240,2013-09-07 11:53:00
6:53 AM,66.0,59.0,78,29.98,10.0,North,4.6,-,N/A,,Clear,360,2013-09-07 12:53:00
7:53 AM,68.0,57.9,70,29.96,10.0,SSE,6.9,-,N/A,,Clear,150,2013-09-07 13:53:00
8:53 AM,69.1,54.0,58,29.96,10.0,SSW,5.8,-,N/A,,Clear,200,2013-09-07 14:53:00
9:53 AM,75.9,55.0,48,29.98,10.0,NNE,3.5,-,N/A,,Partly Cloudy,20,2013-09-07 15:53:00
10:53 AM,77.0,55.9,48,30.00,10.0,NNW,10.4,-,N/A,,Mostly Cloudy,330,2013-09-07 16:53:00
11:53 AM,79.0,53.1,40,29.99,10.0,North,6.9,-,N/A,,Clear,360,2013-09-07 17:53:00
12:53 PM,82.0,51.1,34,29.96,10.0,North,6.9,-,N/A,,Scattered Clouds,360,2013-09-07 18:53:00
1:53 PM,81.0,51.1,35,29.95,10.0,NNW,15.0,23.0,N/A,,Partly Cloudy,330,2013-09-07 19:53:00
2:53 PM,81.0,52.0,36,29.94,10.0,NW,20.7,26.5,N/A,,Clear,320,2013-09-07 20:53:00
3:53 PM,82.9,46.0,27,29.91,10.0,NNW,16.1,-,N/A,,Clear,330,2013-09-07 21:53:00
4:53 PM,79.0,46.9,32,29.94,10.0,West,5.8,-,N/A,,Clear,280,2013-09-07 22:53:00
5:53 PM,71.1,55.9,59,30.01,10.0,SW,20.7,25.3,0.01,Rain,Light Rain,220,2013-09-07 23:53:00
6:53 PM,64.0,60.1,87,30.08,5.0,SSE,13.8,-,0.09,Rain,Rain,150,2013-09-08 00:53:00
7:53 PM,64.0,59.0,84,30.00,10.0,Variable,5.8,-,0.02,Rain,Light Rain,0,2013-09-08 01:53:00
8:53 PM,63.0,59.0,87,29.98,10.0,WNW,5.8,-,0.00,,Scattered Clouds,290,2013-09-08 02:53:00
9:53 PM,66.0,55.9,70,29.97,10.0,SSE,9.2,-,N/A,,Partly Cloudy,150,2013-09-08 03:53:00
10:53 PM,63.0,57.9,84,29.99,10.0,Calm,Calm,-,N/A,,Clear,0,2013-09-08 04:53:00
11:53 PM,64.0,57.9,80,29.95,10.0,South,3.5,-,N/A,,Clear,180,2013-09-08 05:53:00